CW3518 Weather Reports


Display with metric or nautical units.
time (UTC)temp
F
wind
direction
speed
MPH
gust
MPH
rain 1hr
in
rain 24hr
in
rain mn
in
humidity
%
barometer
mb
20260904105958 79 145 7.0 11.0 0.00 0.00 0.00 87 1013.6
20260904105459 79 139 10.0 11.0 0.00 0.00 0.00 87 1013.7
20260904104958 79 134 8.0 11.0 0.00 0.00 0.00 86 1013.7
20260904104458 79 145 11.0 11.0 0.00 0.00 0.00 86 1013.6
20260904103458 79 160 7.0 11.0 0.00 0.00 0.00 86 1013.5
20260904102959 79 153 8.0 11.0 0.00 0.00 0.00 86 1013.4
20260904102459 79 162 10.0 11.0 0.00 0.00 0.00 86 1013.4
20260904101958 79 150 8.0 11.0 0.00 0.00 0.00 86 1013.4
20260904101459 79 160 10.0 11.0 0.00 0.00 0.00 86 1013.4
20260904100958 79 156 7.0 11.0 0.00 0.00 0.00 86 1013.4
20260904100458 79 159 9.0 11.0 0.00 0.00 0.00 85 1013.4
20260904100028 79 154 8.0 10.0 0.00 0.00 0.00 85 1013.4
20260904095459 79 148 7.0 11.0 0.00 0.00 0.00 85 1013.5
20260904094958 79 152 7.0 11.0 0.00 0.00 0.00 85 1013.4
20260904093958 79 131 7.0 12.0 0.00 0.00 0.00 84 1013.4
20260904093529 79 131 7.0 9.0 0.00 0.00 0.00 84 1013.4
20260904092958 80 131 8.0 11.0 0.00 0.00 0.00 83 1013.3
20260904092458 80 156 6.0 11.0 0.00 0.00 0.00 83 1013.3
20260904091958 80 192 7.0 11.0 0.00 0.00 0.00 83 1013.2
20260904091458 80 170 5.0 11.0 0.00 0.00 0.00 83 1013.2
20260904090958 80 163 9.0 12.0 0.00 0.00 0.00 83 1013.2
20260904090458 80 172 10.0 12.0 0.00 0.00 0.00 83 1013.2
20260904085958 80 158 5.0 11.0 0.00 0.00 0.00 83 1013.2
20260904085458 80 158 8.0 12.0 0.00 0.00 0.00 83 1013.2
20260904084958 80 165 7.0 12.0 0.00 0.00 0.00 82 1013.2
20260904084458 79 177 8.0 11.0 0.00 0.00 0.00 82 1013.2
20260904083957 80 187 6.0 11.0 0.00 0.00 0.00 82 1013.2
20260904082957 80 144 7.0 11.0 0.00 0.00 0.00 81 1013.2
20260904082457 80 151 7.0 11.0 0.00 0.00 0.00 81 1013.2
20260904081958 80 149 7.0 10.0 0.00 0.00 0.00 81 1013.2
20260904081457 80 158 8.0 10.0 0.00 0.00 0.00 81 1013.2
20260904080958 80 156 5.0 10.0 0.00 0.00 0.00 81 1013.2
20260904080457 80 160 7.0 10.0 0.00 0.00 0.00 80 1013.2
20260904080027 80 166 8.0 10.0 0.00 0.00 0.00 80 1013.2
20260904075528 80 165 7.0 9.0 0.00 0.00 0.00 80 1013.2
20260904075027 80 178 6.0 10.0 0.00 0.00 0.00 80 1013.2
20260904074528 80 197 6.0 10.0 0.00 0.00 0.00 80 1013.2
20260904073957 80 141 5.0 9.0 0.00 0.00 0.00 79 1013.2
20260904073458 80 150 6.0 9.0 0.00 0.00 0.00 79 1013.2
20260904072958 80 135 4.0 10.0 0.00 0.00 0.00 79 1013.3
20260904071957 80 178 5.0 12.0 0.00 0.00 0.00 79 1013.4
20260904071457 80 166 11.0 12.0 0.00 0.00 0.00 79 1013.4
20260904070957 79 172 9.0 11.0 0.00 0.00 0.00 78 1013.4
20260904070027 79 145 7.0 10.0 0.00 0.00 0.00 76 1013.5
20260904065457 79 149 8.0 9.0 0.00 0.00 0.00 76 1013.5
20260904064957 79 149 8.0 12.0 0.00 0.00 0.00 75 1013.5
20260904064457 79 151 9.0 12.0 0.00 0.00 0.00 75 1013.5
20260904062957 79 149 9.0 12.0 0.00 0.00 0.00 74 1013.5
20260904062527 79 154 10.0 11.0 0.00 0.00 0.00 74 1013.5
20260904062026 79 140 9.0 10.0 0.00 0.00 0.00 74 1013.5
20260904061526 79 139 9.0 10.0 0.00 0.00 0.00 74 1013.5
20260904060526 80 154 8.0 9.0 0.00 0.00 0.00 74 1013.5
20260904060026 80 125 7.0 9.0 0.00 0.00 0.00 74 1013.5
20260904055526 80 151 8.0 9.0 0.00 0.00 0.00 74 1013.6
20260904054956 80 128 6.0 11.0 0.00 0.00 0.00 74 1013.6
20260904054457 80 145 7.0 11.0 0.00 0.00 0.00 73 1013.6
20260904053956 80 154 9.0 11.0 0.00 0.00 0.00 73 1013.5
20260904053456 80 154 10.0 11.0 0.00 0.00 0.00 73 1013.5
20260904052957 80 141 11.0 12.0 0.00 0.00 0.00 73 1013.6
20260904052456 80 144 8.0 12.0 0.00 0.00 0.00 73 1013.6
20260904051956 80 146 9.0 11.0 0.00 0.00 0.00 73 1013.6
20260904051456 80 161 9.0 12.0 0.00 0.00 0.00 73 1013.6
20260904050956 80 145 11.0 12.0 0.00 0.00 0.00 73 1013.4
20260904050456 80 129 12.0 12.0 0.00 0.00 0.00 73 1013.4
20260904050029 80 133 9.0 12.0 0.00 0.00 0.00 73 1013.4
20260904045458 80 137 7.0 12.0 0.00 0.00 0.00 72 1013.4
20260904044955 80 127 10.0 13.0 0.00 0.00 0.00 72 1013.4
20260904044456 81 131 9.0 13.0 0.00 0.00 0.00 72 1013.3
20260904043527 81 0 0.0 15.0 0.00 0.00 0.00 70 1013.2
20260904043025 81 137 11.0 14.0 0.00 0.00 0.00 70 1013.2
20260904042456 81 0 0.0 13.0 0.00 0.00 0.00 70 1013.2
20260904041955 81 142 11.0 13.0 0.00 0.00 0.00 70 1013.2
20260904041455 82 139 10.0 13.0 0.00 0.00 0.00 69 1013.2
20260904040525 82 0 0.0 13.0 0.00 0.00 0.00 70 1013.2
20260904040025 82 141 9.0 11.0 0.00 0.00 0.00 71 1013.3
20260904035525 82 134 9.0 15.0 0.00 0.00 0.00 72 1013.4
20260904035025 82 136 10.0 15.0 0.00 0.00 0.00 72 1013.4
20260904034526 82 142 12.0 13.0 0.00 0.00 0.00 72 1013.3
20260904034024 82 137 11.0 12.0 0.00 0.00 0.00 73 1013.4
20260904033025 82 156 9.0 13.0 0.00 0.00 0.00 73 1013.3
20260904032524 82 156 12.0 13.0 0.00 0.00 0.00 72 1013.3
20260904031025 83 0 0.0 13.0 0.00 0.00 0.00 72 1013.2
20260904030526 83 0 0.0 12.0 0.00 0.00 0.00 72 1013.2
20260904030024 83 0 0.0 0.0 0.00 0.00 0.00 71 1013.2
20260904025524 83 0 0.0 0.0 0.00 0.00 0.00 71 1013.1
20260904025024 84 0 0.0 13.0 0.00 0.00 0.00 70 1013.0
20260904024456 84 0 0.0 16.0 0.00 0.00 0.00 69 1012.9
20260904024024 84 0 0.0 16.0 0.00 0.00 0.00 66 1013.0
20260904022955 85 0 0.0 16.0 0.00 0.00 0.00 65 1012.7
20260904022456 85 119 14.0 16.0 0.00 0.00 0.00 64 1012.6
20260904022024 85 123 12.0 15.0 0.00 0.00 0.00 64 1012.6
20260904021526 85 0 0.0 15.0 0.00 0.00 0.00 64 1012.5
20260904020524 85 120 15.0 16.0 0.00 0.00 0.00 64 1012.2
20260904020025 86 0 0.0 15.0 0.00 0.00 0.00 64 1012.1
20260904014524 86 121 15.0 16.0 0.00 0.00 0.00 64 1011.8
20260904014023 86 132 12.0 16.0 0.00 0.00 0.00 64 1011.8
20260904013525 86 119 14.0 17.0 0.00 0.00 0.00 64 1011.7
20260904012026 87 121 15.0 18.0 0.00 0.00 0.00 63 1011.5
20260904011023 87 0 0.0 18.0 0.00 0.00 0.00 63 1011.4
20260904010454 87 0 0.0 19.0 0.00 0.00 0.00 63 1011.5
20260904005953 87 123 14.0 19.0 0.00 0.00 0.00 62 1011.4
20260904005525 87 0 0.0 19.0 0.00 0.00 0.00 62 1011.3
20260904004955 87 139 11.0 16.0 0.00 0.00 0.00 62 1011.3
20260904004454 88 152 10.0 16.0 0.00 0.00 0.00 62 1011.4
20260904004025 88 141 11.0 16.0 0.00 0.00 0.00 62 1011.3
20260904003523 88 132 13.0 16.0 0.00 0.00 0.00 62 1011.3
20260904002953 88 137 14.0 16.0 0.00 0.00 0.00 61 1011.3
20260904002023 89 132 10.0 21.0 0.00 0.00 0.00 61 1011.2
20260904000523 89 130 9.0 17.0 0.00 0.00 0.00 61 1011.1
20260904000023 89 118 11.0 17.0 0.00 0.00 0.00 61 1011.1
20260903235523 89 131 7.0 18.0 0.00 0.00 0.00 62 1011.1
20260903235023 89 100 12.0 18.0 0.00 0.00 0.00 61 1011.1
20260903234524 89 116 14.0 15.0 0.00 0.00 0.00 61 1011.1
20260903233523 89 125 9.0 10.0 0.00 0.00 0.00 59 1011.2
20260903233024 89 153 7.0 15.0 0.00 0.00 0.00 60 1011.2
20260903232454 89 146 6.0 15.0 0.00 0.00 0.00 60 1011.1
20260903231953 89 118 14.0 15.0 0.00 0.00 0.00 60 1011.1
20260903231522 89 138 9.0 20.0 0.00 0.00 0.00 60 1011.0
20260903230954 89 138 9.0 20.0 0.00 0.00 0.00 60 1010.9
20260903230452 90 119 20.0 20.0 0.00 0.00 0.00 59 1010.8
20260903225522 91 144 10.0 15.0 0.00 0.00 0.00 57 1010.8
20260903225023 91 127 10.0 15.0 0.00 0.00 0.00 57 1010.7
20260903224522 91 171 8.0 17.0 0.00 0.00 0.00 57 1010.7
20260903224022 91 132 11.0 18.0 0.00 0.00 0.00 57 1010.8
20260903223022 91 162 11.0 21.0 0.00 0.00 0.00 57 1010.7
20260903222524 92 141 12.0 21.0 0.00 0.00 0.00 57 1010.6
20260903222022 91 133 9.0 17.0 0.00 0.00 0.00 57 1010.7
20260903221522 92 171 8.0 21.0 0.00 0.00 0.00 56 1010.7
20260903221022 92 163 13.0 21.0 0.00 0.00 0.00 56 1010.7
20260903220522 91 140 17.0 20.0 0.00 0.00 0.00 57 1010.6
20260903220022 91 138 11.0 20.0 0.00 0.00 0.00 58 1010.8
20260903214952 92 188 12.0 18.0 0.00 0.00 0.00 57 1010.7
20260903214522 92 175 12.0 18.0 0.00 0.00 0.00 58 1010.7
20260903214022 91 144 13.0 18.0 0.00 0.00 0.00 58 1010.7
20260903213021 91 133 17.0 20.0 0.00 0.00 0.00 59 1010.8
20260903212452 91 128 20.0 21.0 0.00 0.00 0.00 59 1010.7
20260903212022 90 131 13.0 21.0 0.00 0.00 0.00 62 1010.9
20260903211521 89 118 17.0 20.0 0.00 0.00 0.00 63 1010.9
20260903211021 90 146 16.0 20.0 0.00 0.00 0.00 62 1011.0
20260903210521 90 145 13.0 20.0 0.00 0.00 0.00 62 1011.0
20260903210021 90 119 18.0 20.0 0.00 0.00 0.00 62 1011.1
20260903205521 89 140 12.0 20.0 0.00 0.00 0.00 63 1011.2
20260903204521 90 141 11.0 16.0 0.00 0.00 0.00 61 1011.3
20260903204021 90 120 10.0 14.0 0.00 0.00 0.00 61 1011.3
20260903203520 90 175 10.0 18.0 0.00 0.00 0.00 62 1011.4
20260903203020 90 142 11.0 18.0 0.00 0.00 0.00 62 1011.5
20260903202020 90 126 8.0 20.0 0.00 0.00 0.00 61 1011.5
20260903201020 91 160 11.0 21.0 0.00 0.00 0.00 60 1011.5
20260903200520 90 119 16.0 21.0 0.00 0.00 0.00 61 1011.5
20260903195520 92 157 10.0 17.0 0.00 0.00 0.00 57 1011.7
20260903195020 91 165 11.0 16.0 0.00 0.00 0.00 57 1011.8
20260903194520 91 164 15.0 15.0 0.00 0.00 0.00 57 1011.8
20260903194020 91 142 12.0 15.0 0.00 0.00 0.00 58 1011.9
20260903193520 91 147 10.0 17.0 0.00 0.00 0.00 57 1011.9
20260903193020 91 153 10.0 17.0 0.00 0.00 0.00 58 1012.0
20260903192520 91 121 7.0 17.0 0.00 0.00 0.00 56 1012.1
20260903192020 91 193 6.0 16.0 0.00 0.00 0.00 59 1012.2
20260903191520 90 164 12.0 17.0 0.00 0.00 0.00 60 1012.3
20260903191020 90 145 11.0 17.0 0.00 0.00 0.00 61 1012.4
20260903190520 89 173 7.0 15.0 0.00 0.00 0.00 61 1012.5
20260903190020 89 131 9.0 15.0 0.00 0.00 0.00 61 1012.6
20260903185521 89 171 12.0 18.0 0.00 0.00 0.00 61 1012.7
20260903185019 89 182 8.0 18.0 0.00 0.00 0.00 61 1012.8
20260903184520 89 131 5.0 22.0 0.00 0.00 0.00 62 1012.8
20260903184019 89 160 14.0 22.0 0.00 0.00 0.00 61 1012.9
20260903183519 89 131 13.0 20.0 0.00 0.00 0.00 61 1012.9
20260903183020 89 145 7.0 20.0 0.00 0.00 0.00 62 1013.0
20260903182519 90 139 12.0 20.0 0.00 0.00 0.00 62 1013.0
20260903182019 88 119 11.0 20.0 0.00 0.00 0.00 64 1013.1
20260903181519 88 129 10.0 18.0 0.00 0.00 0.00 63 1013.2
20260903181019 88 142 11.0 20.0 0.00 0.00 0.00 64 1013.2
20260903180519 88 0 0.0 20.0 0.00 0.00 0.00 65 1013.1
20260903175519 88 158 12.0 17.0 0.00 0.00 0.00 64 1013.3
20260903175019 88 158 13.0 16.0 0.00 0.00 0.00 64 1013.4
20260903174519 87 130 15.0 15.0 0.00 0.00 0.00 65 1013.4
20260903174019 87 176 9.0 17.0 0.00 0.00 0.00 66 1013.5
20260903173519 87 140 10.0 19.0 0.00 0.00 0.00 66 1013.5
20260903173019 87 119 14.0 19.0 0.00 0.00 0.00 66 1013.6
20260903172519 87 172 16.0 17.0 0.00 0.00 0.00 67 1013.6
20260903172018 87 111 15.0 17.0 0.00 0.00 0.00 65 1013.6
20260903171518 87 162 11.0 18.0 0.00 0.00 0.00 66 1013.7
20260903171018 87 130 13.0 20.0 0.00 0.00 0.00 66 1013.7
20260903170518 86 158 13.0 20.0 0.00 0.00 0.00 67 1013.7
20260903170018 86 157 13.0 15.0 0.00 0.00 0.00 68 1013.8
20260903164518 86 135 9.0 15.0 0.00 0.00 0.00 68 1013.9
20260903164019 87 163 11.0 16.0 0.00 0.00 0.00 66 1013.8
20260903163518 87 185 6.0 16.0 0.00 0.00 0.00 67 1013.9
20260903162518 86 128 15.0 15.0 0.00 0.00 0.00 67 1013.9
20260903162018 86 107 11.0 14.0 0.00 0.00 0.00 68 1014.0
20260903161018 84 165 4.0 16.0 0.00 0.00 0.00 70 1014.0
20260903160518 85 168 8.0 16.0 0.00 0.00 0.00 70 1014.0
20260903160018 85 156 13.0 16.0 0.00 0.00 0.00 69 1014.0
20260903155518 85 140 7.0 15.0 0.00 0.00 0.00 71 1014.0
20260903155018 84 161 8.0 14.0 0.00 0.00 0.00 71 1014.0
20260903154517 84 144 8.0 15.0 0.00 0.00 0.00 72 1014.0
20260903154017 83 158 10.0 15.0 0.00 0.00 0.00 73 1013.9
20260903153517 83 148 14.0 14.0 0.00 0.00 0.00 75 1013.9
20260903153018 83 157 14.0 14.0 0.00 0.00 0.00 74 1013.9
20260903152517 82 0 0.0 14.0 0.00 0.00 0.00 75 1013.9
20260903151517 82 128 8.0 17.0 0.00 0.00 0.00 75 1014.0
20260903151018 82 162 11.0 17.0 0.00 0.00 0.00 75 1013.9
20260903150517 83 107 13.0 16.0 0.00 0.00 0.00 74 1013.9
20260903150017 82 117 12.0 15.0 0.00 0.00 0.00 74 1014.0
20260903145517 82 124 11.0 16.0 0.00 0.00 0.00 74 1014.0
20260903145017 82 123 12.0 16.0 0.00 0.00 0.00 74 1014.0
20260903144517 82 111 13.0 15.0 0.00 0.00 0.00 74 1014.1
20260903144017 82 0 0.0 15.0 0.00 0.00 0.00 74 1014.0
20260903143517 82 112 8.0 15.0 0.00 0.00 0.00 75 1014.1
20260903143017 82 0 0.0 15.0 0.00 0.00 0.00 75 1014.0
20260903142517 81 118 9.0 14.0 0.00 0.00 0.00 75 1014.0
20260903142016 81 141 9.0 13.0 0.00 0.00 0.00 76 1013.9
20260903141516 81 126 8.0 11.0 0.00 0.00 0.00 76 1014.0
20260903141016 81 121 9.0 11.0 0.00 0.00 0.00 77 1014.0
20260903140517 81 114 6.0 11.0 0.00 0.00 0.00 77 1014.0
20260903140016 80 115 7.0 10.0 0.00 0.00 0.00 79 1014.1
20260903135516 80 142 7.0 11.0 0.00 0.00 0.00 80 1014.1
20260903135016 79 93 8.0 13.0 0.00 0.00 0.00 82 1014.1
20260903134016 79 76 11.0 13.0 0.00 0.00 0.00 84 1014.0
20260903133516 79 87 8.0 11.0 0.00 0.00 0.00 84 1014.1
20260903133016 79 95 7.0 10.0 0.00 0.00 0.00 86 1014.1
20260903132516 78 84 9.0 14.0 0.00 0.00 0.00 87 1014.1
20260903132016 78 91 8.0 14.0 0.00 0.00 0.00 88 1014.1
20260903131015 77 105 9.0 11.0 0.00 0.00 0.00 89 1014.2
20260903130517 77 84 9.0 11.0 0.00 0.00 0.00 89 1014.2
20260903130016 77 76 8.0 8.0 0.00 0.00 0.00 87 1014.2
20260903125015 76 91 7.0 7.0 0.00 0.00 0.00 88 1014.2
20260903124515 76 94 5.0 6.0 0.00 0.00 0.00 88 1014.0
20260903124016 76 93 4.0 6.0 0.00 0.00 0.00 88 1013.9
20260903123515 76 90 3.0 4.0 0.00 0.00 0.00 88 1013.7
20260903123015 75 68 2.0 5.0 0.00 0.00 0.00 89 1013.6
20260903121515 76 104 7.0 8.0 0.00 0.00 0.00 88 1013.7
20260903121015 77 117 3.0 3.0 0.00 0.00 0.00 86 1013.6
20260903120015 76 222 2.0 3.0 0.00 0.00 0.00 87 1013.5
20260903115515 76 126 1.0 4.0 0.00 0.00 0.00 88 1013.5
20260903115015 76 18 2.0 4.0 0.00 0.00 0.00 88 1013.4
20260903114515 76 34 3.0 5.0 0.00 0.00 0.00 88 1013.4
20260903114015 76 36 5.0 5.0 0.00 0.00 0.00 88 1013.4
20260903113515 76 81 3.0 6.0 0.00 0.00 0.00 87 1013.5
20260903113015 76 115 4.0 7.0 0.00 0.00 0.00 88 1013.6
20260903112515 76 105 5.0 7.0 0.00 0.00 0.00 88 1013.6
20260903111515 76 97 5.0 5.0 0.00 0.00 0.00 88 1013.5
20260903111015 76 84 5.0 5.0 0.00 0.00 0.00 88 1013.5
20260903110515 76 84 3.0 5.0 0.00 0.00 0.00 88 1013.5